This is the latest recevied weather packets stored in our database for station/object WZ9ZZZ-1. If no packets are shown the sender has not sent any weather packets the latest 10 day(s).
| Time | Temp. | Humidity | Pressure | Rain* | Wind** | Luminosity | Snow |
|---|---|---|---|---|---|---|---|
| 1777822472 | 25.56° C | 44% | 1026.5 hPa | 0 mm | - | 628 W/m² | - |
| 1777822170 | 26.11° C | 43% | 1026.2 hPa | 0 mm | - | 625 W/m² | - |
| 1777821867 | 25.56° C | 42% | 1026.4 hPa | 0 mm | - | 609 W/m² | - |
| 1777821564 | 25° C | 46% | 1026.2 hPa | 0 mm | - | 580 W/m² | - |
| 1777821262 | 24.44° C | 48% | 1025.9 hPa | 0 mm | - | 575 W/m² | - |
| 1777820959 | 24.44° C | 43% | 1026.1 hPa | 0 mm | - | 567 W/m² | - |
| 1777820655 | 25° C | 46% | 1025.9 hPa | 0 mm | - | 550 W/m² | - |
| 1777820351 | 25° C | 48% | 1025.8 hPa | 0 mm | - | 533 W/m² | - |
| 1777820049 | 24.44° C | 48% | 1026 hPa | 0 mm | - | 497 W/m² | - |
| 1777819745 | 24.44° C | 46% | 1026.1 hPa | 0 mm | - | 489 W/m² | - |
| 1777819444 | 23.89° C | 48% | 1026.3 hPa | 0 mm | - | 474 W/m² | - |
| 1777819142 | 24.44° C | 45% | 1025.9 hPa | 0 mm | - | 445 W/m² | - |
| 1777818838 | 25° C | 47% | 1026 hPa | 0 mm | - | 408 W/m² | - |
| 1777818534 | 24.44° C | 48% | 1025.9 hPa | 0 mm | - | 402 W/m² | - |
| 1777818232 | 23.89° C | 50% | 1025.8 hPa | 0 mm | - | 372 W/m² | - |
| 1777817927 | 24.44° C | 52% | 1025.8 hPa | 0 mm | - | 360 W/m² | - |
| 1777817625 | 23.89° C | 53% | 1025.8 hPa | 0 mm | - | 354 W/m² | - |
| 1777817322 | 24.44° C | 59% | 1025.7 hPa | 0 mm | - | 335 W/m² | - |
| 1777817019 | 23.89° C | 62% | 1025.6 hPa | 0 mm | - | 301 W/m² | - |
| 1777816714 | 23.89° C | 65% | 1025.7 hPa | 0 mm | - | 280 W/m² | - |
| 1777816412 | 22.78° C | 67% | 1025.5 hPa | 0 mm | - | 269 W/m² | - |
| 1777816110 | 22.78° C | 68% | 1025.8 hPa | 0 mm | - | 245 W/m² | - |
| 1777815807 | 22.78° C | 71% | 1025.6 hPa | 0 mm | - | 241 W/m² | - |
| 1777815505 | 21.11° C | 76% | 1025.4 hPa | 0 mm | - | 209 W/m² | - |
| 1777815202 | 20° C | 84% | 1025.6 hPa | 0 mm | - | 195 W/m² | - |
* Rain latest hour (hover to see other rain measurements)
** Current wind speed in m/s (hover to see current wind gust speed)